| time (UTC) | temp F | wind direction | speed MPH | gust MPH | rain 1hr in | rain 24hr in | rain mn in | humidity % | barometer mb |
| 20260508175110 | 70 | 266 | 5.0 | 11.0 | 0.00 | 0.00 | 0.00 | 36 | 1014.1 |
| 20260508174110 | 70 | 273 | 4.0 | 9.0 | 0.00 | 0.00 | 0.00 | 38 | 1014.0 |
| 20260508173110 | 68 | 291 | 1.0 | 5.0 | 0.00 | 0.00 | 0.00 | 38 | 1014.1 |
| 20260508172110 | 68 | 286 | 4.0 | 9.0 | 0.00 | 0.00 | 0.00 | 40 | 1014.3 |
| 20260508171111 | 67 | 266 | 3.0 | 7.0 | 0.00 | 0.00 | 0.00 | 40 | 1014.2 |
| 20260508170130 | 65 | 298 | 0.0 | 3.0 | 0.00 | 0.00 | 0.00 | 49 | 1014.2 |
| 20260508165110 | 64 | 0.0 | 0.0 | 0.00 | 0.00 | 0.00 | 54 | 1014.3 | |
| 20260508164111 | 64 | 0.0 | 0.0 | 0.00 | 0.00 | 0.00 | 56 | 1014.3 | |
| 20260508163111 | 63 | 290 | 0.0 | 2.0 | 0.00 | 0.00 | 0.00 | 56 | 1014.3 |
| 20260508162152 | 62 | 304 | 0.0 | 1.0 | 0.00 | 0.00 | 0.00 | 58 | 1014.3 |
| 20260508161131 | 61 | 0.0 | 0.0 | 0.00 | 0.00 | 0.00 | 62 | 1014.1 | |
| 20260508160111 | 60 | 109 | 0.0 | 3.0 | 0.00 | 0.00 | 0.00 | 63 | 1014.2 |
| 20260508155151 | 59 | 0.0 | 0.0 | 0.00 | 0.00 | 0.00 | 65 | 1014.2 | |
| 20260508154111 | 57 | 62 | 0.0 | 4.0 | 0.00 | 0.00 | 0.00 | 68 | 1014.0 |
| 20260508153111 | 56 | 0.0 | 0.0 | 0.00 | 0.00 | 0.00 | 70 | 1014.0 | |
| 20260508152131 | 54 | 65 | 0.0 | 4.0 | 0.00 | 0.00 | 0.00 | 74 | 1014.0 |
| 20260508151111 | 53 | 90 | 0.0 | 3.0 | 0.00 | 0.00 | 0.00 | 76 | 1013.9 |
| 20260508150112 | 52 | 76 | 2.0 | 5.0 | 0.00 | 0.00 | 0.00 | 77 | 1013.9 |
| 20260508145132 | 51 | 139 | 0.0 | 3.0 | 0.00 | 0.00 | 0.00 | 81 | 1013.9 |
| 20260508144112 | 51 | 119 | 0.0 | 2.0 | 0.00 | 0.00 | 0.00 | 82 | 1013.8 |
| 20260508143132 | 50 | 0.0 | 0.0 | 0.00 | 0.00 | 0.00 | 82 | 1013.9 | |
| 20260508142112 | 49 | 83 | 1.0 | 3.0 | 0.00 | 0.00 | 0.00 | 82 | 1013.7 |
| 20260508141112 | 49 | 72 | 3.0 | 4.0 | 0.00 | 0.00 | 0.00 | 82 | 1013.6 |
| 20260508140233 | 48 | 114 | 0.0 | 3.0 | 0.00 | 0.00 | 0.00 | 83 | 1013.6 |
| 20260508135113 | 48 | 136 | 0.0 | 3.0 | 0.00 | 0.00 | 0.00 | 83 | 1013.5 |
| 20260508134113 | 47 | 76 | 0.0 | 3.0 | 0.00 | 0.00 | 0.00 | 84 | 1013.3 |
| 20260508133113 | 46 | 124 | 0.0 | 1.0 | 0.00 | 0.00 | 0.00 | 84 | 1013.3 |
| 20260508132113 | 46 | 0.0 | 0.0 | 0.00 | 0.00 | 0.00 | 84 | 1013.2 | |
| 20260508131113 | 46 | 97 | 0.0 | 2.0 | 0.00 | 0.00 | 0.00 | 84 | 1013.0 |
| 20260508130114 | 45 | 0.0 | 0.0 | 0.00 | 0.00 | 0.00 | 84 | 1013.0 | |
| 20260508125133 | 45 | 60 | 0.0 | 2.0 | 0.00 | 0.00 | 0.00 | 83 | 1012.9 |
| 20260508124114 | 45 | 59 | 0.0 | 2.0 | 0.00 | 0.00 | 0.00 | 83 | 1012.9 |
| 20260508123134 | 45 | 54 | 0.0 | 3.0 | 0.00 | 0.00 | 0.00 | 83 | 1012.9 |
| 20260508122114 | 44 | 161 | 0.0 | 1.0 | 0.00 | 0.00 | 0.00 | 83 | 1012.9 |
| 20260508121114 | 44 | 246 | 0.0 | 2.0 | 0.00 | 0.00 | 0.00 | 83 | 1013.0 |
| 20260508120113 | 44 | 269 | 0.0 | 1.0 | 0.00 | 0.00 | 0.00 | 83 | 1012.9 |
| 20260508115114 | 44 | 130 | 0.0 | 1.0 | 0.00 | 0.00 | 0.00 | 83 | 1012.9 |
| 20260508114114 | 44 | 0.0 | 0.0 | 0.00 | 0.00 | 0.00 | 83 | 1012.9 | |
| 20260508113114 | 45 | 355 | 0.0 | 2.0 | 0.00 | 0.00 | 0.00 | 83 | 1012.8 |
| 20260508112114 | 44 | 191 | 0.0 | 1.0 | 0.00 | 0.00 | 0.00 | 83 | 1012.8 |
| 20260508111114 | 44 | 235 | 0.0 | 1.0 | 0.00 | 0.00 | 0.00 | 83 | 1012.7 |
| 20260508110115 | 45 | 47 | 1.0 | 4.0 | 0.00 | 0.00 | 0.00 | 83 | 1012.5 |
| 20260508105136 | 45 | 249 | 0.0 | 2.0 | 0.00 | 0.00 | 0.00 | 82 | 1012.4 |
| 20260508104114 | 45 | 310 | 0.0 | 2.0 | 0.00 | 0.00 | 0.00 | 82 | 1012.5 |
| 20260508103115 | 45 | 99 | 1.0 | 4.0 | 0.00 | 0.00 | 0.00 | 82 | 1012.4 |
| 20260508102135 | 46 | 146 | 0.0 | 1.0 | 0.00 | 0.00 | 0.00 | 80 | 1012.4 |
| 20260508101135 | 46 | 0.0 | 0.0 | 0.00 | 0.00 | 0.00 | 79 | 1012.4 | |
| 20260508100115 | 46 | 175 | 0.0 | 2.0 | 0.00 | 0.00 | 0.00 | 77 | 1012.3 |
| 20260508095115 | 47 | 0.0 | 0.0 | 0.00 | 0.00 | 0.00 | 76 | 1012.3 | |
| 20260508094115 | 47 | 133 | 0.0 | 0.0 | 0.00 | 0.00 | 0.00 | 75 | 1012.2 |
| 20260508093116 | 47 | 95 | 0.0 | 1.0 | 0.00 | 0.00 | 0.00 | 73 | 1012.2 |
| 20260508092115 | 48 | 65 | 1.0 | 3.0 | 0.00 | 0.00 | 0.00 | 73 | 1012.3 |
| 20260508091116 | 48 | 64 | 0.0 | 2.0 | 0.00 | 0.00 | 0.00 | 71 | 1012.3 |
| 20260508090116 | 49 | 127 | 0.0 | 2.0 | 0.00 | 0.00 | 0.00 | 70 | 1012.3 |
| 20260508085116 | 49 | 107 | 0.0 | 2.0 | 0.00 | 0.00 | 0.00 | 68 | 1012.3 |
| 20260508084116 | 50 | 115 | 0.0 | 3.0 | 0.00 | 0.00 | 0.00 | 67 | 1012.3 |
| 20260508083116 | 51 | 166 | 0.0 | 0.0 | 0.00 | 0.00 | 0.00 | 65 | 1012.3 |
| 20260508082116 | 52 | 209 | 0.0 | 2.0 | 0.00 | 0.00 | 0.00 | 62 | 1012.2 |
| 20260508081117 | 53 | 110 | 0.0 | 3.0 | 0.00 | 0.00 | 0.00 | 61 | 1012.2 |
| 20260508080117 | 53 | 151 | 1.0 | 4.0 | 0.00 | 0.00 | 0.00 | 57 | 1012.2 |
| 20260508075016 | 52 | 182 | 1.0 | 3.0 | 0.00 | 0.00 | 0.00 | 61 | 1012.2 |
| 20260508074017 | 52 | 226 | 1.0 | 3.0 | 0.00 | 0.00 | 0.00 | 63 | 1012.1 |
| 20260508073117 | 53 | 62 | 5.0 | 7.0 | 0.00 | 0.00 | 0.00 | 63 | 1012.1 |
| 20260508072117 | 53 | 116 | 2.0 | 5.0 | 0.00 | 0.00 | 0.00 | 62 | 1012.0 |
| 20260508071117 | 54 | 115 | 2.0 | 4.0 | 0.00 | 0.00 | 0.00 | 60 | 1012.0 |
| 20260508070117 | 55 | 220 | 0.0 | 1.0 | 0.00 | 0.00 | 0.00 | 57 | 1011.9 |
| 20260508065017 | 55 | 126 | 0.0 | 2.0 | 0.00 | 0.00 | 0.00 | 55 | 1011.9 |
| 20260508064017 | 56 | 152 | 0.0 | 1.0 | 0.00 | 0.00 | 0.00 | 55 | 1011.9 |
| 20260508063037 | 56 | 0.0 | 0.0 | 0.00 | 0.00 | 0.00 | 55 | 1011.9 | |
| 20260508062117 | 57 | 111 | 1.0 | 5.0 | 0.00 | 0.00 | 0.00 | 54 | 1011.8 |
| 20260508061118 | 57 | 131 | 1.0 | 3.0 | 0.00 | 0.00 | 0.00 | 54 | 1011.8 |
| 20260508060018 | 59 | 108 | 0.0 | 2.0 | 0.00 | 0.00 | 0.00 | 53 | 1011.7 |
| 20260508055018 | 59 | 3 | 0.0 | 1.0 | 0.00 | 0.00 | 0.00 | 49 | 1011.6 |
| 20260508054018 | 59 | 190 | 0.0 | 2.0 | 0.00 | 0.00 | 0.00 | 49 | 1011.5 |
| 20260508053018 | 60 | 172 | 0.0 | 2.0 | 0.00 | 0.00 | 0.00 | 51 | 1011.5 |
| 20260508052018 | 59 | 131 | 1.0 | 3.0 | 0.00 | 0.00 | 0.00 | 51 | 1011.5 |
| 20260508051018 | 60 | 179 | 0.0 | 1.0 | 0.00 | 0.00 | 0.00 | 51 | 1011.4 |
| 20260508050039 | 61 | 97 | 0.0 | 1.0 | 0.00 | 0.00 | 0.00 | 50 | 1011.3 |
| 20260508045019 | 62 | 114 | 0.0 | 2.0 | 0.00 | 0.00 | 0.00 | 48 | 1011.3 |
| 20260508044019 | 64 | 251 | 2.0 | 4.0 | 0.00 | 0.00 | 0.00 | 48 | 1011.2 |
| 20260508043019 | 65 | 229 | 1.0 | 4.0 | 0.00 | 0.00 | 0.00 | 42 | 1011.1 |
| 20260508042019 | 67 | 256 | 1.0 | 4.0 | 0.00 | 0.00 | 0.00 | 42 | 1011.1 |
| 20260508041019 | 68 | 268 | 1.0 | 4.0 | 0.00 | 0.00 | 0.00 | 40 | 1011.0 |
| 20260508040019 | 70 | 0.0 | 0.0 | 0.00 | 0.00 | 0.00 | 38 | 1011.0 | |
| 20260508035020 | 71 | 211 | 0.0 | 3.0 | 0.00 | 0.00 | 0.00 | 37 | 1010.9 |
| 20260508034019 | 72 | 284 | 3.0 | 5.0 | 0.00 | 0.00 | 0.00 | 36 | 1010.7 |
| 20260508033019 | 73 | 157 | 1.0 | 5.0 | 0.00 | 0.00 | 0.00 | 34 | 1010.6 |
| 20260508032100 | 73 | 129 | 2.0 | 7.0 | 0.00 | 0.00 | 0.00 | 33 | 1010.6 |
| 20260508031020 | 74 | 131 | 2.0 | 7.0 | 0.00 | 0.00 | 0.00 | 33 | 1010.6 |
| 20260508030020 | 74 | 121 | 3.0 | 9.0 | 0.00 | 0.00 | 0.00 | 33 | 1010.6 |
| 20260508025040 | 74 | 121 | 3.0 | 9.0 | 0.00 | 0.00 | 0.00 | 33 | 1010.7 |
| 20260508024020 | 74 | 105 | 4.0 | 12.0 | 0.00 | 0.00 | 0.00 | 32 | 1010.6 |
| 20260508023040 | 75 | 106 | 4.0 | 11.0 | 0.00 | 0.00 | 0.00 | 30 | 1010.6 |
| 20260508022020 | 76 | 138 | 2.0 | 6.0 | 0.00 | 0.00 | 0.00 | 31 | 1010.7 |
| 20260508021023 | 76 | 160 | 1.0 | 7.0 | 0.00 | 0.00 | 0.00 | 30 | 1010.8 |
| 20260508020020 | 76 | 149 | 4.0 | 9.0 | 0.00 | 0.00 | 0.00 | 30 | 1010.9 |
| 20260508015021 | 76 | 163 | 5.0 | 11.0 | 0.00 | 0.00 | 0.00 | 28 | 1010.8 |
| 20260508014021 | 77 | 152 | 3.0 | 11.0 | 0.00 | 0.00 | 0.00 | 30 | 1010.9 |
| 20260508013021 | 78 | 163 | 4.0 | 9.0 | 0.00 | 0.00 | 0.00 | 30 | 1010.9 |
| 20260508012021 | 79 | 148 | 4.0 | 13.0 | 0.00 | 0.00 | 0.00 | 31 | 1010.9 |
| 20260508011021 | 79 | 163 | 5.0 | 14.0 | 0.00 | 0.00 | 0.00 | 31 | 1010.9 |
| 20260508010021 | 80 | 160 | 5.0 | 12.0 | 0.00 | 0.00 | 0.00 | 31 | 1011.0 |
| 20260508005042 | 80 | 204 | 5.0 | 9.0 | 0.00 | 0.00 | 0.00 | 31 | 1011.1 |
| 20260508004022 | 80 | 167 | 5.0 | 11.0 | 0.00 | 0.00 | 0.00 | 32 | 1011.1 |
| 20260508003022 | 79 | 182 | 5.0 | 11.0 | 0.00 | 0.00 | 0.00 | 34 | 1011.2 |
| 20260508002042 | 79 | 102 | 4.0 | 11.0 | 0.00 | 0.00 | 0.00 | 36 | 1011.3 |
| 20260508001022 | 79 | 75 | 4.0 | 10.0 | 0.00 | 0.00 | 0.00 | 36 | 1011.3 |
| 20260508000022 | 78 | 99 | 4.0 | 10.0 | 0.00 | 0.00 | 0.00 | 36 | 1011.4 |
| 20260507235023 | 78 | 65 | 4.0 | 11.0 | 0.00 | 0.00 | 0.00 | 37 | 1011.4 |
| 20260507234023 | 79 | 50 | 3.0 | 10.0 | 0.00 | 0.00 | 0.00 | 37 | 1011.5 |
| 20260507233023 | 80 | 94 | 3.0 | 8.0 | 0.00 | 0.00 | 0.00 | 36 | 1011.7 |
| 20260507232023 | 80 | 36 | 2.0 | 6.0 | 0.00 | 0.00 | 0.00 | 35 | 1011.8 |
| 20260507231023 | 80 | 41 | 2.0 | 8.0 | 0.00 | 0.00 | 0.00 | 35 | 1011.9 |
| 20260507230023 | 79 | 353 | 0.0 | 1.0 | 0.00 | 0.00 | 0.00 | 35 | 1012.0 |
| 20260507225023 | 79 | 68 | 3.0 | 7.0 | 0.00 | 0.00 | 0.00 | 35 | 1012.1 |
| 20260507224043 | 79 | 45 | 2.0 | 8.0 | 0.00 | 0.00 | 0.00 | 36 | 1012.2 |
| 20260507223024 | 79 | 345 | 1.0 | 5.0 | 0.00 | 0.00 | 0.00 | 36 | 1012.3 |
| 20260507222023 | 79 | 311 | 1.0 | 4.0 | 0.00 | 0.00 | 0.00 | 36 | 1012.5 |
| 20260507221044 | 78 | 321 | 1.0 | 7.0 | 0.00 | 0.00 | 0.00 | 36 | 1012.6 |
| 20260507220024 | 78 | 309 | 2.0 | 9.0 | 0.00 | 0.00 | 0.00 | 36 | 1012.7 |
| 20260507215024 | 77 | 321 | 2.0 | 6.0 | 0.00 | 0.00 | 0.00 | 37 | 1012.8 |
| 20260507214024 | 76 | 320 | 2.0 | 5.0 | 0.00 | 0.00 | 0.00 | 38 | 1012.9 |
| 20260507213024 | 76 | 350 | 2.0 | 4.0 | 0.00 | 0.00 | 0.00 | 38 | 1013.0 |
| 20260507212044 | 76 | 53 | 3.0 | 8.0 | 0.00 | 0.00 | 0.00 | 38 | 1013.1 |
| 20260507211024 | 78 | 64 | 3.0 | 9.0 | 0.00 | 0.00 | 0.00 | 37 | 1013.2 |
| 20260507210044 | 77 | 144 | 1.0 | 5.0 | 0.00 | 0.00 | 0.00 | 36 | 1013.4 |
| 20260507205024 | 75 | 55 | 1.0 | 4.0 | 0.00 | 0.00 | 0.00 | 38 | 1013.5 |
| 20260507204025 | 75 | 56 | 5.0 | 12.0 | 0.00 | 0.00 | 0.00 | 39 | 1013.6 |
| 20260507203045 | 75 | 58 | 2.0 | 8.0 | 0.00 | 0.00 | 0.00 | 38 | 1013.7 |
| 20260507202045 | 74 | 117 | 4.0 | 9.0 | 0.00 | 0.00 | 0.00 | 39 | 1013.8 |
| 20260507201025 | 75 | 111 | 5.0 | 12.0 | 0.00 | 0.00 | 0.00 | 38 | 1013.9 |
| 20260507200025 | 75 | 184 | 6.0 | 12.0 | 0.00 | 0.00 | 0.00 | 38 | 1013.9 |
| 20260507195025 | 74 | 160 | 4.0 | 14.0 | 0.00 | 0.00 | 0.00 | 40 | 1014.0 |
| 20260507194025 | 74 | 100 | 3.0 | 7.0 | 0.00 | 0.00 | 0.00 | 40 | 1014.1 |
| 20260507193025 | 74 | 89 | 2.0 | 9.0 | 0.00 | 0.00 | 0.00 | 41 | 1014.1 |
| 20260507192026 | 74 | 203 | 6.0 | 15.0 | 0.00 | 0.00 | 0.00 | 39 | 1014.2 |
| 20260507191026 | 73 | 73 | 3.0 | 9.0 | 0.00 | 0.00 | 0.00 | 41 | 1014.2 |
| 20260507190026 | 73 | 132 | 5.0 | 12.0 | 0.00 | 0.00 | 0.00 | 41 | 1014.3 |
| 20260507185026 | 73 | 272 | 2.0 | 7.0 | 0.00 | 0.00 | 0.00 | 40 | 1014.2 |
| 20260507184026 | 73 | 238 | 3.0 | 10.0 | 0.00 | 0.00 | 0.00 | 37 | 1014.3 |
| 20260507183026 | 72 | 284 | 2.0 | 8.0 | 0.00 | 0.00 | 0.00 | 36 | 1014.4 |
| 20260507182026 | 72 | 303 | 4.0 | 12.0 | 0.00 | 0.00 | 0.00 | 36 | 1014.4 |
| 20260507181027 | 71 | 320 | 2.0 | 10.0 | 0.00 | 0.00 | 0.00 | 39 | 1014.4 |
| 20260507180027 | 71 | 294 | 3.0 | 13.0 | 0.00 | 0.00 | 0.00 | 40 | 1014.5 |